Weather History for 76305 - August, 2013

Change the Weather History Date:

Saturday, August 24, 2013

  Actual Average Record
Temperature  
Mean Temperature 81 °F -  
Max Temperature 84 °F 90 °F - ()
Min Temperature 78 °F 81 °F - ()
Cooling Degree Days 16    
Growing Degree Days 31 (Base 50)    
Moisture  
Dew Point 77 °F    
Average Humidity 83    
Maximum Humidity 100    
Minimum Humidity 57    
Precipitation  
Precipitation 0.94 in - - ()
Sea Level Pressure  
Sea Level Pressure 29.79 in    
Wind  
Wind Speed 8 mph ()    
Max Wind Speed 21 mph    
Max Gust Speed -    
Visibility 7.4 miles    
Events Rain , Thunderstorm    
T = Trace of Precipitation, MM = Missing Value Source: Averaged Metar Reports

Daily Weather History Graph

Daily Weather History Graph

Search for Another Location

Airport or City:

Trip Planner

Search our weather history database for the weather conditions in past years. The results will help you decide how hot, cold, wet, or windy it might be!

Date:

Astronomy

Aug. 24, 2013 Rise Set
Actual Time 1:02 PM GMT 1:52 AM GMT
Civil Twilight 12:38 PM GMT 2:16 AM GMT
Nautical Twilight 12:10 PM GMT 2:44 AM GMT
Astronomical Twilight 11:42 AM GMT 3:12 AM GMT
Moon 3:40 AM GMT (8/24) 4:36 PM GMT (8/24)
Length of Visible Light 13h 37m
Length of Day
12h 50m
Waning Gibbous, 86% of the Moon is Illuminated
Aug 24
Waning Gibbous
Aug 28
Last Quarter
Sep 5
New
Sep 12
First Quarter
Sep 19
Full

Hourly Weather History & Observations

Time (GMT) Temp. Heat Index Dew Point Humidity Pressure Visibility Wind Dir Wind Speed Gust Speed Precip Events Conditions
12:02 AM 93.2 °F 110.2 °F 78.8 °F 63% 29.71 in 8.0 mi SSE 11.5 mph - N/A   Scattered Clouds
12:47 AM 89.6 °F 102.2 °F 77.0 °F 66% 29.71 in 8.0 mi SSE 13.8 mph - N/A   Mostly Cloudy
2:50 AM 86 °F - 73 °F 57% 29.75 in 12 mi SSE 6.7 mph - -   Partly Cloudy
5:45 AM 85 °F - 75 °F 65% 29.81 in 12 mi SSE 4.5 mph - -   Scattered Clouds
8:50 AM 84 °F - 74 °F 66% 29.78 in 12 mi SSE 6.7 mph - -   Partly Cloudy
11:45 AM 84 °F - 74 °F 65% 29.78 in 12 mi SE 4.5 mph - -   Overcast
1:11 PM 82.4 °F 94.0 °F 80.6 °F 94% 29.80 in 4.0 mi Calm Calm - N/A Rain Rain
1:43 PM 82.4 °F 89.5 °F 75.2 °F 79% 29.80 in 6.0 mi South 13.8 mph - N/A Rain Light Rain
2:42 PM 82.4 °F 89.5 °F 75.2 °F 79% 29.80 in 7.0 mi SSW 11.5 mph - N/A   Overcast
3:00 PM 81 °F - 74 °F 74% 29.81 in 12 mi NW 2.2 mph - -   Overcast
3:20 PM 82.4 °F 94.0 °F 80.6 °F 94% 29.83 in 3.0 mi SSW 9.2 mph - N/A Rain Rain
3:40 PM 80.6 °F 88.1 °F 78.8 °F 94% 29.83 in 3.0 mi SW 6.9 mph - N/A Rain Light Rain
4:43 PM 80.6 °F 88.1 °F 78.8 °F 94% 29.85 in 3.0 mi WSW 6.9 mph - N/A Rain Rain
5:42 PM 80.6 °F 88.1 °F 78.8 °F 94% 29.85 in 8.0 mi WNW 6.9 mph - N/A   Overcast
5:45 PM 78 °F - 74 °F 84% 29.86 in 12 mi North 4.5 mph - - Rain Drizzle
6:41 PM 82.4 °F 94.0 °F 80.6 °F 94% 29.84 in 5.0 mi NNW 6.9 mph - N/A   Overcast
7:40 PM 78.8 °F - 75.2 °F 89% 29.82 in 4.0 mi Calm Calm - N/A Rain Light Rain
8:19 PM 78.8 °F - 78.8 °F 100% 29.77 in 4.0 mi NNW 20.7 mph - N/A Rain , Thunderstorm Thunderstorms and Rain
8:45 PM 80 °F - 75 °F 82% 29.82 in 12 mi North 4.5 mph - - Rain Light Rain
8:52 PM 78.8 °F - 78.8 °F 100% 29.78 in 4.0 mi SE 18.4 mph - N/A Rain , Thunderstorm Thunderstorms and Rain
9:49 PM 78.8 °F - 78.8 °F 100% 29.77 in 4.0 mi NW 6.9 mph - N/A Rain , Thunderstorm Thunderstorms and Rain
10:26 PM 78.8 °F - 75.2 °F 89% 29.75 in 6.0 mi ENE 18.4 mph - N/A Rain Rain Showers
10:40 PM 78.8 °F - 75.2 °F 89% 29.74 in 6.0 mi NNE 11.5 mph - N/A Rain Light Rain
11:50 PM 81 °F - 78 °F 86% 29.75 in 12 mi NNE 6.7 mph - - Rain Light Rain
11:51 PM 78.8 °F - 75.2 °F 89% 29.71 in 6.0 mi NNE 16.1 mph - N/A   Overcast